| time (UTC) | temp F | wind direction | speed MPH | gust MPH | rain 1hr in | rain 24hr in | rain mn in | humidity % | barometer mb |
| 20260502152132 | 51 | 218 | 0.0 | 0.0 | 0.00 | 0.00 | 0.00 | 42 | 1010.6 |
| 20260502151630 | 51 | 246 | 0.0 | 0.0 | 0.00 | 0.00 | 0.00 | 41 | 1010.6 |
| 20260502151127 | 51 | 241 | 0.0 | 0.0 | 0.00 | 0.00 | 0.00 | 42 | 1010.6 |
| 20260502150624 | 52 | 251 | 0.0 | 0.0 | 0.00 | 0.00 | 0.00 | 48 | 1010.6 |
| 20260502150120 | 51 | 149 | 0.0 | 0.0 | 0.00 | 0.00 | 0.00 | 43 | 1010.6 |
| 20260502130509 | 46 | 145 | 0.0 | 0.0 | 0.00 | 0.00 | 0.00 | 66 | 1010.9 |
| 20260502123451 | 43 | 171 | 0.0 | 0.0 | 0.00 | 0.00 | 0.00 | 71 | 1010.6 |
| 20260502122948 | 43 | 195 | 0.0 | 0.0 | 0.00 | 0.00 | 0.00 | 74 | 1010.6 |
| 20260502122444 | 42 | 226 | 0.0 | 0.0 | 0.00 | 0.00 | 0.00 | 73 | 1010.6 |
| 20260502121943 | 42 | 198 | 0.0 | 0.0 | 0.00 | 0.00 | 0.00 | 73 | 1010.6 |
| 20260502121440 | 44 | 204 | 0.0 | 0.0 | 0.00 | 0.00 | 0.00 | 74 | 1010.6 |
| 20260502120938 | 44 | 168 | 0.0 | 0.0 | 0.00 | 0.00 | 0.00 | 77 | 1010.6 |
| 20260502120434 | 43 | 169 | 0.0 | 0.0 | 0.00 | 0.00 | 0.00 | 80 | 1010.6 |
| 20260502115931 | 42 | 150 | 0.0 | 0.0 | 0.00 | 0.00 | 0.00 | 81 | 1010.6 |
| 20260502115428 | 41 | 173 | 0.0 | 0.0 | 0.00 | 0.00 | 0.00 | 84 | 1010.6 |
| 20260502114924 | 40 | 220 | 0.0 | 0.0 | 0.00 | 0.00 | 0.00 | 85 | 1010.6 |
| 20260502114421 | 40 | 213 | 0.0 | 0.0 | 0.00 | 0.00 | 0.00 | 85 | 1010.2 |
| 20260502113918 | 39 | 235 | 0.0 | 0.0 | 0.00 | 0.00 | 0.00 | 85 | 1010.2 |
| 20260502113416 | 39 | 195 | 0.0 | 0.0 | 0.00 | 0.00 | 0.00 | 86 | 1010.2 |
| 20260502112914 | 38 | 26 | 0.0 | 0.0 | 0.00 | 0.00 | 0.00 | 88 | 1010.2 |
| 20260502112411 | 38 | 250 | 0.0 | 0.0 | 0.00 | 0.00 | 0.00 | 88 | 1010.2 |
| 20260502111909 | 38 | 348 | 0.0 | 0.0 | 0.00 | 0.00 | 0.00 | 89 | 1010.2 |
| 20260502111405 | 37 | 234 | 0.0 | 0.0 | 0.00 | 0.00 | 0.00 | 90 | 1010.2 |
| 20260502110903 | 37 | 233 | 0.0 | 0.0 | 0.00 | 0.00 | 0.00 | 90 | 1010.2 |
| 20260502110401 | 36 | 254 | 0.0 | 0.0 | 0.00 | 0.00 | 0.00 | 91 | 1010.2 |
| 20260502105858 | 36 | 193 | 0.0 | 0.0 | 0.00 | 0.00 | 0.00 | 91 | 1010.2 |
| 20260502105355 | 36 | 225 | 0.0 | 0.0 | 0.00 | 0.00 | 0.00 | 91 | 1009.9 |
| 20260502104853 | 35 | 186 | 0.0 | 0.0 | 0.00 | 0.00 | 0.00 | 91 | 1009.9 |
| 20260502104350 | 35 | 216 | 0.0 | 0.0 | 0.00 | 0.00 | 0.00 | 92 | 1009.9 |
| 20260502103847 | 35 | 247 | 0.0 | 0.0 | 0.00 | 0.00 | 0.00 | 92 | 1009.9 |
| 20260502103344 | 35 | 228 | 0.0 | 0.0 | 0.00 | 0.00 | 0.00 | 92 | 1009.9 |
| 20260502102841 | 35 | 261 | 0.0 | 0.0 | 0.00 | 0.00 | 0.00 | 92 | 1009.9 |
| 20260502102338 | 34 | 244 | 0.0 | 0.0 | 0.00 | 0.00 | 0.00 | 92 | 1009.5 |
| 20260502101835 | 34 | 257 | 0.0 | 0.0 | 0.00 | 0.00 | 0.00 | 92 | 1009.5 |
| 20260502101333 | 34 | 235 | 0.0 | 0.0 | 0.00 | 0.00 | 0.00 | 92 | 1009.5 |
| 20260502100832 | 34 | 201 | 0.0 | 0.0 | 0.00 | 0.00 | 0.00 | 92 | 1009.5 |
| 20260502100331 | 33 | 215 | 0.0 | 0.0 | 0.00 | 0.00 | 0.00 | 92 | 1009.5 |
| 20260502091304 | 32 | 202 | 0.0 | 0.0 | 0.00 | 0.00 | 0.00 | 92 | 1008.8 |
| 20260502090802 | 32 | 222 | 0.0 | 0.0 | 0.00 | 0.00 | 0.00 | 92 | 1008.8 |
| 20260502090258 | 33 | 211 | 0.0 | 0.0 | 0.00 | 0.00 | 0.00 | 92 | 1008.8 |
| 20260502071159 | 32 | 188 | 0.0 | 0.0 | 0.00 | 0.00 | 0.00 | 92 | 1008.4 |
| 20260502070657 | 33 | 189 | 0.0 | 0.0 | 0.00 | 0.00 | 0.00 | 92 | 1008.1 |
| 20260502070154 | 33 | 194 | 0.0 | 0.0 | 0.00 | 0.00 | 0.00 | 92 | 1008.1 |
| 20260502065653 | 33 | 198 | 0.0 | 0.0 | 0.00 | 0.00 | 0.00 | 91 | 1008.4 |
| 20260502065150 | 33 | 186 | 0.0 | 0.0 | 0.00 | 0.00 | 0.00 | 91 | 1008.1 |
| 20260502064649 | 34 | 187 | 0.0 | 0.0 | 0.00 | 0.00 | 0.00 | 91 | 1008.1 |
| 20260502064145 | 34 | 181 | 0.0 | 0.0 | 0.00 | 0.00 | 0.00 | 91 | 1008.1 |
| 20260502063643 | 34 | 200 | 0.0 | 0.0 | 0.00 | 0.00 | 0.00 | 91 | 1007.7 |
| 20260502063141 | 35 | 192 | 0.0 | 0.0 | 0.00 | 0.00 | 0.00 | 91 | 1008.1 |
| 20260502062637 | 35 | 189 | 0.0 | 0.0 | 0.00 | 0.00 | 0.00 | 91 | 1007.7 |
| 20260502062135 | 35 | 203 | 0.0 | 0.0 | 0.00 | 0.00 | 0.00 | 91 | 1007.7 |
| 20260502061633 | 35 | 193 | 0.0 | 0.0 | 0.00 | 0.00 | 0.00 | 91 | 1007.7 |
| 20260502061131 | 35 | 194 | 0.0 | 0.0 | 0.00 | 0.00 | 0.00 | 91 | 1007.7 |
| 20260502060630 | 35 | 198 | 0.0 | 0.0 | 0.00 | 0.00 | 0.00 | 91 | 1007.7 |
| 20260502060127 | 34 | 189 | 0.0 | 0.0 | 0.00 | 0.00 | 0.00 | 91 | 1007.7 |
| 20260502055625 | 35 | 211 | 0.0 | 0.0 | 0.00 | 0.00 | 0.00 | 91 | 1007.4 |
| 20260502055123 | 35 | 225 | 0.0 | 0.0 | 0.00 | 0.00 | 0.00 | 91 | 1007.7 |
| 20260502054622 | 35 | 233 | 0.0 | 0.0 | 0.00 | 0.00 | 0.00 | 91 | 1007.7 |
| 20260502054119 | 36 | 217 | 0.0 | 0.0 | 0.00 | 0.00 | 0.00 | 91 | 1007.4 |
| 20260502053616 | 36 | 207 | 0.0 | 0.0 | 0.00 | 0.00 | 0.00 | 91 | 1007.4 |
| 20260502053113 | 36 | 185 | 0.0 | 0.0 | 0.00 | 0.00 | 0.00 | 91 | 1007.7 |
| 20260502052611 | 36 | 198 | 0.0 | 0.0 | 0.00 | 0.00 | 0.00 | 91 | 1007.7 |
| 20260502052109 | 36 | 209 | 0.0 | 0.0 | 0.00 | 0.00 | 0.00 | 91 | 1007.4 |
| 20260502051607 | 36 | 172 | 0.0 | 0.0 | 0.00 | 0.00 | 0.00 | 91 | 1007.7 |
| 20260502051105 | 36 | 196 | 0.0 | 0.0 | 0.00 | 0.00 | 0.00 | 91 | 1007.7 |
| 20260502050601 | 37 | 204 | 0.0 | 0.0 | 0.00 | 0.00 | 0.00 | 91 | 1007.7 |
| 20260502050058 | 37 | 189 | 0.0 | 0.0 | 0.00 | 0.00 | 0.00 | 91 | 1007.7 |
| 20260502045554 | 37 | 182 | 0.0 | 0.0 | 0.00 | 0.00 | 0.00 | 91 | 1007.7 |
| 20260502045051 | 37 | 186 | 0.0 | 0.0 | 0.00 | 0.00 | 0.00 | 91 | 1007.7 |
| 20260502044548 | 37 | 181 | 0.0 | 0.0 | 0.00 | 0.00 | 0.00 | 91 | 1007.7 |
| 20260502044044 | 37 | 223 | 0.0 | 0.0 | 0.00 | 0.00 | 0.00 | 91 | 1007.7 |
| 20260502043542 | 37 | 147 | 0.0 | 0.0 | 0.00 | 0.00 | 0.00 | 91 | 1007.4 |
| 20260502043038 | 37 | 269 | 0.0 | 0.0 | 0.00 | 0.00 | 0.00 | 91 | 1007.7 |
| 20260502042533 | 37 | 265 | 0.0 | 0.0 | 0.00 | 0.00 | 0.00 | 91 | 1007.4 |
| 20260502042031 | 37 | 183 | 0.0 | 0.0 | 0.00 | 0.00 | 0.00 | 91 | 1007.4 |
| 20260502041529 | 38 | 198 | 0.0 | 0.0 | 0.00 | 0.00 | 0.00 | 91 | 1007.4 |
| 20260502041026 | 38 | 173 | 0.0 | 0.0 | 0.00 | 0.00 | 0.00 | 91 | 1007.4 |
| 20260502040522 | 38 | 145 | 0.0 | 0.0 | 0.00 | 0.00 | 0.00 | 91 | 1007.4 |
| 20260502040020 | 38 | 248 | 0.0 | 0.0 | 0.00 | 0.25 | 0.25 | 91 | 1007.4 |
| 20260502035515 | 38 | 211 | 0.0 | 0.0 | 0.00 | 0.25 | 0.25 | 91 | 1007.4 |
| 20260502035013 | 38 | 281 | 0.0 | 0.0 | 0.00 | 0.25 | 0.25 | 91 | 1007.4 |
| 20260502034511 | 38 | 146 | 0.0 | 0.0 | 0.00 | 0.25 | 0.25 | 91 | 1007.4 |
| 20260502034009 | 38 | 193 | 0.0 | 0.0 | 0.00 | 0.25 | 0.25 | 92 | 1007.4 |
| 20260502033507 | 38 | 199 | 0.0 | 0.0 | 0.00 | 0.25 | 0.25 | 92 | 1007.4 |
| 20260502033004 | 38 | 220 | 0.0 | 0.0 | 0.00 | 0.25 | 0.25 | 92 | 1007.4 |
| 20260502032459 | 38 | 191 | 0.0 | 0.0 | 0.00 | 0.25 | 0.25 | 92 | 1007.4 |
| 20260502031956 | 38 | 201 | 0.0 | 0.0 | 0.00 | 0.25 | 0.25 | 92 | 1007.1 |
| 20260502031454 | 39 | 222 | 0.0 | 0.0 | 0.00 | 0.25 | 0.25 | 92 | 1007.4 |
| 20260502030952 | 39 | 220 | 0.0 | 0.0 | 0.00 | 0.25 | 0.25 | 92 | 1007.4 |
| 20260502030450 | 39 | 193 | 0.0 | 0.0 | 0.00 | 0.25 | 0.25 | 92 | 1007.1 |
| 20260502025948 | 39 | 192 | 0.0 | 0.0 | 0.00 | 0.25 | 0.25 | 92 | 1007.4 |
| 20260502025445 | 39 | 169 | 0.0 | 0.0 | 0.00 | 0.25 | 0.25 | 92 | 1007.4 |
| 20260502024943 | 39 | 204 | 0.0 | 0.0 | 0.00 | 0.25 | 0.25 | 92 | 1007.4 |
| 20260502024441 | 39 | 248 | 0.0 | 0.0 | 0.00 | 0.25 | 0.25 | 92 | 1007.4 |
| 20260502023939 | 39 | 302 | 0.0 | 0.0 | 0.00 | 0.25 | 0.25 | 92 | 1007.1 |
| 20260502023436 | 39 | 204 | 0.0 | 0.0 | 0.00 | 0.25 | 0.25 | 92 | 1007.4 |
| 20260502022933 | 39 | 197 | 0.0 | 0.0 | 0.00 | 0.25 | 0.25 | 92 | 1007.1 |
| 20260502022429 | 39 | 210 | 0.0 | 0.0 | 0.00 | 0.25 | 0.25 | 92 | 1007.4 |
| 20260502021926 | 39 | 201 | 0.0 | 0.0 | 0.00 | 0.25 | 0.25 | 92 | 1007.4 |
| 20260502021424 | 39 | 202 | 0.0 | 0.0 | 0.00 | 0.25 | 0.25 | 92 | 1007.4 |
| 20260502020921 | 39 | 207 | 0.0 | 0.0 | 0.00 | 0.25 | 0.25 | 92 | 1007.4 |
| 20260502020419 | 39 | 237 | 0.0 | 0.0 | 0.07 | 0.25 | 0.25 | 92 | 1007.4 |
| 20260502015915 | 39 | 204 | 0.0 | 0.0 | 0.07 | 0.25 | 0.25 | 92 | 1007.1 |
| 20260502015413 | 40 | 153 | 0.0 | 0.0 | 0.00 | 0.24 | 0.24 | 92 | 1007.4 |
| 20260502014909 | 40 | 192 | 0.0 | 0.0 | 0.00 | 0.24 | 0.24 | 92 | 1007.4 |
| 20260502014406 | 40 | 248 | 0.0 | 0.0 | 0.00 | 0.24 | 0.24 | 92 | 1007.4 |
| 20260502013903 | 40 | 241 | 0.0 | 0.0 | 0.00 | 0.24 | 0.24 | 92 | 1007.1 |
| 20260502013358 | 40 | 200 | 0.0 | 0.0 | 0.00 | 0.24 | 0.24 | 92 | 1007.4 |
| 20260502012855 | 40 | 220 | 0.0 | 0.0 | 0.00 | 0.24 | 0.24 | 91 | 1007.1 |
| 20260502012353 | 41 | 144 | 0.0 | 0.0 | 0.07 | 0.24 | 0.24 | 91 | 1007.1 |
| 20260502011850 | 41 | 199 | 0.0 | 0.0 | 0.00 | 0.24 | 0.24 | 91 | 1007.1 |
| 20260502011346 | 41 | 39 | 0.0 | 0.0 | 0.07 | 0.22 | 0.22 | 91 | 1007.1 |
| 20260502010843 | 41 | 205 | 0.0 | 0.0 | 0.14 | 0.22 | 0.22 | 91 | 1007.1 |
| 20260502010340 | 41 | 358 | 0.0 | 0.0 | 0.07 | 0.21 | 0.21 | 91 | 1007.1 |
| 20260502005836 | 41 | 112 | 0.0 | 0.0 | 0.00 | 0.20 | 0.20 | 91 | 1006.7 |
| 20260502005335 | 41 | 101 | 0.0 | 0.0 | 0.00 | 0.20 | 0.20 | 91 | 1006.7 |
| 20260502004832 | 41 | 203 | 0.0 | 0.0 | 0.00 | 0.20 | 0.20 | 91 | 1007.1 |
| 20260502004327 | 41 | 161 | 0.0 | 0.0 | 0.00 | 0.20 | 0.20 | 91 | 1006.7 |
| 20260502003826 | 41 | 192 | 0.0 | 0.0 | 0.00 | 0.20 | 0.20 | 91 | 1006.7 |
| 20260502003322 | 41 | 199 | 0.0 | 0.0 | 0.00 | 0.20 | 0.20 | 91 | 1006.7 |
| 20260502002819 | 41 | 189 | 0.0 | 0.0 | 0.00 | 0.20 | 0.20 | 91 | 1006.7 |
| 20260502002316 | 41 | 186 | 0.0 | 0.0 | 0.00 | 0.20 | 0.20 | 90 | 1006.4 |
| 20260502001813 | 41 | 197 | 0.0 | 0.0 | 0.00 | 0.20 | 0.20 | 90 | 1006.7 |
| 20260502001311 | 41 | 195 | 0.0 | 0.0 | 0.00 | 0.20 | 0.20 | 90 | 1006.4 |
| 20260502000808 | 41 | 317 | 0.0 | 0.0 | 0.00 | 0.20 | 0.20 | 90 | 1006.4 |
| 20260502000306 | 41 | 159 | 0.0 | 0.0 | 0.00 | 0.20 | 0.20 | 90 | 1006.4 |
| 20260501235802 | 41 | 181 | 0.0 | 0.0 | 0.00 | 0.20 | 0.20 | 90 | 1006.4 |
| 20260501235258 | 42 | 230 | 0.0 | 0.0 | 0.00 | 0.20 | 0.20 | 90 | 1006.1 |
| 20260501234753 | 42 | 181 | 0.0 | 0.0 | 0.00 | 0.20 | 0.20 | 89 | 1006.1 |
| 20260501234251 | 42 | 161 | 0.0 | 0.0 | 0.00 | 0.20 | 0.20 | 89 | 1006.1 |
| 20260501233749 | 42 | 218 | 0.0 | 0.0 | 0.00 | 0.20 | 0.20 | 89 | 1006.1 |
| 20260501233246 | 42 | 195 | 0.0 | 0.0 | 0.00 | 0.20 | 0.20 | 89 | 1006.1 |
| 20260501232741 | 42 | 159 | 0.0 | 0.0 | 0.00 | 0.20 | 0.20 | 89 | 1006.1 |
| 20260501232239 | 42 | 202 | 0.0 | 0.0 | 0.00 | 0.20 | 0.20 | 88 | 1006.1 |
| 20260501231736 | 42 | 202 | 0.0 | 0.0 | 0.00 | 0.20 | 0.20 | 88 | 1006.1 |
| 20260501231235 | 42 | 356 | 0.0 | 2.0 | 0.00 | 0.20 | 0.20 | 88 | 1006.1 |
| 20260501230732 | 42 | 251 | 0.0 | 0.0 | 0.00 | 0.20 | 0.20 | 88 | 1006.1 |
| 20260501230231 | 42 | 204 | 0.0 | 0.0 | 0.00 | 0.20 | 0.20 | 88 | 1005.7 |
| 20260501225729 | 42 | 70 | 0.0 | 0.0 | 0.00 | 0.20 | 0.20 | 88 | 1005.7 |
| 20260501225226 | 43 | 203 | 0.0 | 0.0 | 0.00 | 0.20 | 0.20 | 88 | 1005.7 |
| 20260501224722 | 43 | 196 | 0.0 | 0.0 | 0.00 | 0.20 | 0.20 | 88 | 1005.7 |
| 20260501224219 | 43 | 48 | 0.0 | 0.0 | 0.00 | 0.20 | 0.20 | 88 | 1005.4 |
| 20260501223715 | 43 | 194 | 0.0 | 0.0 | 0.00 | 0.20 | 0.20 | 88 | 1005.4 |
| 20260501223212 | 43 | 163 | 0.0 | 0.0 | 0.00 | 0.20 | 0.20 | 88 | 1005.4 |
| 20260501222708 | 43 | 191 | 0.0 | 0.0 | 0.00 | 0.20 | 0.20 | 88 | 1005.4 |
| 20260501222205 | 43 | 175 | 0.0 | 0.0 | 0.00 | 0.20 | 0.20 | 87 | 1005.4 |
| 20260501221702 | 44 | 187 | 0.0 | 0.0 | 0.00 | 0.20 | 0.20 | 87 | 1004.9 |
| 20260501221159 | 44 | 289 | 0.0 | 0.0 | 0.00 | 0.20 | 0.20 | 87 | 1004.9 |
| 20260501220657 | 44 | 206 | 0.0 | 0.0 | 0.00 | 0.20 | 0.20 | 87 | 1004.9 |
| 20260501220154 | 44 | 137 | 0.0 | 0.0 | 0.00 | 0.20 | 0.20 | 87 | 1004.9 |
| 20260501215651 | 44 | 241 | 0.0 | 0.0 | 0.00 | 0.20 | 0.20 | 86 | 1004.9 |
| 20260501215146 | 44 | 49 | 0.0 | 0.0 | 0.00 | 0.20 | 0.20 | 86 | 1004.9 |
| 20260501214641 | 44 | 120 | 0.0 | 0.0 | 0.00 | 0.20 | 0.20 | 86 | 1004.9 |
| 20260501214136 | 45 | 275 | 0.0 | 0.0 | 0.00 | 0.20 | 0.20 | 85 | 1004.9 |
| 20260501213634 | 45 | 205 | 0.0 | 2.0 | 0.00 | 0.20 | 0.20 | 85 | 1004.9 |
| 20260501213130 | 45 | 274 | 0.0 | 0.0 | 0.00 | 0.20 | 0.20 | 85 | 1004.6 |
| 20260501212627 | 46 | 168 | 0.0 | 0.0 | 0.00 | 0.20 | 0.20 | 85 | 1004.9 |
| 20260501212123 | 45 | 158 | 0.0 | 0.0 | 0.00 | 0.20 | 0.20 | 85 | 1004.9 |
| 20260501211620 | 45 | 193 | 0.0 | 0.0 | 0.00 | 0.20 | 0.20 | 85 | 1004.9 |
| 20260501211118 | 45 | 313 | 0.0 | 0.0 | 0.00 | 0.20 | 0.20 | 84 | 1004.9 |
| 20260501210614 | 45 | 171 | 0.0 | 0.0 | 0.00 | 0.20 | 0.20 | 84 | 1004.6 |
| 20260501210111 | 46 | 286 | 0.0 | 0.0 | 0.00 | 0.20 | 0.20 | 86 | 1004.6 |
| 20260501205607 | 45 | 21 | 0.0 | 0.0 | 0.00 | 0.20 | 0.20 | 86 | 1004.6 |
| 20260501205105 | 45 | 35 | 0.0 | 0.0 | 0.00 | 0.20 | 0.20 | 86 | 1004.6 |
| 20260501204601 | 45 | 20 | 0.0 | 0.0 | 0.00 | 0.20 | 0.20 | 86 | 1004.6 |
| 20260501204057 | 45 | 193 | 0.0 | 0.0 | 0.00 | 0.20 | 0.20 | 87 | 1004.6 |
| 20260501203554 | 44 | 190 | 0.0 | 0.0 | 0.00 | 0.20 | 0.20 | 87 | 1004.6 |
| 20260501203051 | 45 | 213 | 0.0 | 0.0 | 0.00 | 0.20 | 0.20 | 87 | 1004.6 |
| 20260501202548 | 44 | 244 | 0.0 | 0.0 | 0.00 | 0.20 | 0.20 | 87 | 1004.6 |
| 20260501202045 | 45 | 245 | 0.0 | 2.0 | 0.00 | 0.20 | 0.20 | 87 | 1004.6 |
| 20260501201542 | 45 | 338 | 0.0 | 2.0 | 0.00 | 0.20 | 0.20 | 86 | 1004.6 |
| 20260501201038 | 45 | 330 | 0.0 | 0.0 | 0.00 | 0.20 | 0.20 | 87 | 1004.3 |
| 20260501200536 | 46 | 31 | 0.0 | 0.0 | 0.00 | 0.20 | 0.20 | 87 | 1004.3 |
| 20260501200033 | 45 | 71 | 0.0 | 0.0 | 0.00 | 0.20 | 0.20 | 88 | 1004.3 |
| 20260501195530 | 44 | 166 | 0.0 | 2.0 | 0.00 | 0.20 | 0.20 | 88 | 1004.3 |
| 20260501195025 | 45 | 194 | 0.0 | 0.0 | 0.00 | 0.20 | 0.20 | 88 | 1004.3 |
| 20260501194521 | 46 | 196 | 0.0 | 0.0 | 0.00 | 0.20 | 0.20 | 88 | 1004.3 |
| 20260501194017 | 46 | 143 | 0.0 | 0.0 | 0.00 | 0.20 | 0.20 | 88 | 1004.3 |
| 20260501193515 | 46 | 160 | 0.0 | 0.0 | 0.00 | 0.20 | 0.20 | 87 | 1004.3 |
| 20260501193014 | 46 | 339 | 0.0 | 0.0 | 0.00 | 0.20 | 0.20 | 88 | 1004.3 |
| 20260501192510 | 46 | 33 | 0.0 | 0.0 | 0.00 | 0.20 | 0.20 | 88 | 1004.3 |
| 20260501192008 | 45 | 323 | 0.0 | 0.0 | 0.00 | 0.20 | 0.20 | 88 | 1004.3 |
| 20260501191504 | 45 | 222 | 0.0 | 0.0 | 0.00 | 0.20 | 0.20 | 88 | 1004.3 |
| 20260501191002 | 46 | 222 | 0.0 | 0.0 | 0.00 | 0.20 | 0.20 | 86 | 1003.9 |
| 20260501190457 | 46 | 150 | 0.0 | 2.0 | 0.00 | 0.20 | 0.20 | 86 | 1004.3 |
| 20260501185953 | 48 | 92 | 0.0 | 0.0 | 0.00 | 0.20 | 0.20 | 86 | 1003.9 |
| 20260501185449 | 47 | 273 | 0.0 | 2.0 | 0.00 | 0.20 | 0.20 | 87 | 1003.9 |
| 20260501184945 | 47 | 197 | 0.0 | 0.0 | 0.00 | 0.20 | 0.20 | 88 | 1003.6 |
| 20260501184442 | 47 | 279 | 0.0 | 0.0 | 0.00 | 0.20 | 0.20 | 88 | 1003.9 |
| 20260501183936 | 46 | 153 | 0.0 | 0.0 | 0.00 | 0.20 | 0.20 | 88 | 1003.6 |
| 20260501183434 | 46 | 143 | 0.0 | 0.0 | 0.00 | 0.20 | 0.20 | 88 | 1003.6 |
| 20260501182930 | 46 | 115 | 0.0 | 0.0 | 0.00 | 0.20 | 0.20 | 89 | 1003.6 |
| 20260501182427 | 46 | 352 | 0.0 | 0.0 | 0.00 | 0.20 | 0.20 | 89 | 1003.6 |
| 20260501181923 | 46 | 235 | 0.0 | 0.0 | 0.00 | 0.20 | 0.20 | 90 | 1003.6 |
| 20260501181421 | 46 | 341 | 0.0 | 0.0 | 0.00 | 0.20 | 0.20 | 90 | 1003.6 |
| 20260501180918 | 45 | 198 | 0.0 | 0.0 | 0.00 | 0.20 | 0.20 | 91 | 1003.6 |
| 20260501180415 | 45 | 188 | 0.0 | 0.0 | 0.00 | 0.20 | 0.20 | 91 | 1003.2 |
| 20260501175911 | 46 | 21 | 0.0 | 0.0 | 0.00 | 0.20 | 0.20 | 91 | 1003.6 |
| 20260501175408 | 46 | 235 | 0.0 | 0.0 | 0.00 | 0.20 | 0.20 | 92 | 1003.6 |
| 20260501174905 | 47 | 23 | 0.0 | 0.0 | 0.00 | 0.20 | 0.20 | 92 | 1003.6 |
| 20260501174403 | 46 | 172 | 0.0 | 0.0 | 0.00 | 0.20 | 0.20 | 92 | 1003.2 |
| 20260501173900 | 46 | 216 | 0.0 | 0.0 | 0.00 | 0.20 | 0.20 | 92 | 1003.2 |
| 20260501173358 | 45 | 133 | 0.0 | 0.0 | 0.00 | 0.20 | 0.20 | 92 | 1003.6 |
| 20260501172853 | 45 | 229 | 0.0 | 0.0 | 0.00 | 0.20 | 0.20 | 92 | 1003.2 |
| 20260501172348 | 45 | 143 | 0.0 | 0.0 | 0.00 | 0.20 | 0.20 | 92 | 1003.2 |
| 20260501171844 | 46 | 261 | 0.0 | 0.0 | 0.00 | 0.20 | 0.20 | 93 | 1003.2 |
| 20260501171341 | 45 | 279 | 0.0 | 0.0 | 0.00 | 0.20 | 0.20 | 92 | 1003.2 |
| 20260501170838 | 46 | 219 | 0.0 | 0.0 | 0.00 | 0.20 | 0.20 | 93 | 1003.2 |
| 20260501170335 | 45 | 278 | 0.0 | 0.0 | 0.00 | 0.20 | 0.20 | 92 | 1002.9 |
| 20260501165832 | 45 | 172 | 0.0 | 0.0 | 0.00 | 0.20 | 0.20 | 92 | 1002.9 |
| 20260501165330 | 45 | 196 | 0.0 | 0.0 | 0.00 | 0.20 | 0.20 | 93 | 1002.9 |
| 20260501164827 | 45 | 146 | 0.0 | 0.0 | 0.00 | 0.20 | 0.20 | 93 | 1003.2 |
| 20260501164325 | 46 | 220 | 0.0 | 0.0 | 0.00 | 0.20 | 0.20 | 93 | 1003.2 |
| 20260501163820 | 46 | 221 | 0.0 | 0.0 | 0.00 | 0.20 | 0.20 | 93 | 1002.9 |
| 20260501163318 | 46 | 205 | 0.0 | 0.0 | 0.00 | 0.20 | 0.20 | 93 | 1002.9 |
| 20260501162815 | 46 | 222 | 0.0 | 0.0 | 0.00 | 0.20 | 0.20 | 93 | 1002.9 |
| 20260501162311 | 46 | 331 | 0.0 | 0.0 | 0.00 | 0.20 | 0.20 | 93 | 1002.9 |
| 20260501161808 | 46 | 167 | 0.0 | 0.0 | 0.00 | 0.20 | 0.20 | 93 | 1002.9 |
| 20260501161305 | 47 | 290 | 0.0 | 0.0 | 0.00 | 0.20 | 0.20 | 93 | 1002.6 |
| 20260501160801 | 47 | 38 | 0.0 | 0.0 | 0.00 | 0.20 | 0.20 | 93 | 1002.6 |
| 20260501160258 | 46 | 357 | 0.0 | 0.0 | 0.00 | 0.20 | 0.20 | 93 | 1002.6 |
| 20260501155756 | 47 | 235 | 0.0 | 0.0 | 0.00 | 0.20 | 0.20 | 93 | 1002.6 |